Weather reports worldwide

Advertisment
Maastricht, Netherlands (6380): temperature & dewpoint: 17.10.2020 08:00:00 - 23.10.2020 08:00:00 (CEST)Maastricht, Netherlands (6380): temperature 5cm: 17.10.2020 08:00:00 - 23.10.2020 08:00:00 (CEST)Maastricht, Netherlands (6380): wind speed & gusts: 17.10.2020 08:00:00 - 23.10.2020 08:00:00 (CEST)Maastricht, Netherlands (6380): wind direction: 17.10.2020 08:00:00 - 23.10.2020 08:00:00 (CEST)Maastricht, Netherlands (6380): reduced air pressure: 17.10.2020 08:00:00 - 23.10.2020 08:00:00 (CEST)Maastricht, Netherlands (6380): visibility: 17.10.2020 08:00:00 - 23.10.2020 08:00:00 (CEST)Maastricht, Netherlands (6380): precipitation: 17.10.2020 08:00:00 - 23.10.2020 08:00:00 (CEST)
Date & Time tt [°C] td [°C] tt 5cm [°C] ff [km/h] ff [kn] fx [km/h] fx [kn] dd ppp [hPa] vv [km] rr [mm]
23.10.2020 08:00:00 14,0 13,5 13,8 4 2 - - S 1010,8 2,2 1,8
23.10.2020 07:00:00 14,0 13,8 13,9 4 2 7 4 S 1010,9 3,9 5,5
23.10.2020 06:00:00 14,1 13,7 14,0 2 1 7 4 - 1011,2 4,7 0,9
23.10.2020 05:00:00 14,1 13,7 13,8 2 1 4 2 SE 1011,7 6 0,0
23.10.2020 04:00:00 14,2 13,9 13,9 4 2 7 4 SSE 1012,0 2,6 0,0
23.10.2020 03:00:00 14,1 13,7 13,9 4 2 11 6 SSW 1012,3 3,4 0,4
23.10.2020 02:00:00 14,3 13,8 13,6 2 1 4 2 W 1012,6 9 0,0
23.10.2020 01:00:00 14,3 13,8 13,8 4 2 7 4 SSW 1012,6 7 0,0
23.10.2020 00:00:00 14,6 14,0 14,0 8 4 11 6 SSW 1012,6 8 0,0
22.10.2020 23:00:00 14,8 13,9 14,1 9 5 14 8 SW 1012,7 10 0,0
22.10.2020 22:00:00 14,7 13,7 14,2 13 7 18 10 SSW 1012,4 10 0,0
22.10.2020 21:00:00 13,9 13,3 13,2 9 5 14 8 SSW 1012,2 10 0,0
22.10.2020 20:00:00 14,1 13,6 13,5 13 7 14 8 SSW 1012,2 10 0,0
22.10.2020 19:00:00 14,4 13,7 13,9 15 8 18 10 SSW 1011,8 10 0,0
22.10.2020 18:00:00 15,4 14,8 15,0 11 6 32 18 SW 1011,5 10 3,0
22.10.2020 17:00:00 13,6 12,3 14,2 11 6 76 41 W 1011,8 10 8,0
22.10.2020 16:00:00 18,0 13,1 17,8 22 12 36 19 SW 1011,1 10 0,0
22.10.2020 15:00:00 18,2 13,1 18,1 24 13 36 19 SW 1011,4 10 0,0
22.10.2020 14:00:00 18,0 13,3 17,9 21 11 36 19 SW 1011,5 10 0,0
22.10.2020 13:00:00 18,1 13,3 18,8 29 16 43 23 SW 1011,9 10 0,0
22.10.2020 12:00:00 17,6 13,1 17,3 28 15 40 21 SW 1012,0 10 0,0
22.10.2020 11:00:00 16,0 12,5 15,6 26 14 36 19 SSW 1012,4 10 0,0
22.10.2020 10:00:00 15,5 12,8 15,3 21 11 32 18 SSW 1012,1 10 0,0
22.10.2020 09:00:00 15,6 12,8 14,8 21 11 29 16 SSW 1011,0 10 0,0
22.10.2020 08:00:00 15,0 12,6 14,4 21 11 29 16 SSW 1010,3 10 0,0
22.10.2020 07:00:00 14,8 12,5 14,1 21 11 25 14 SSW 1010,2 10 0,0
22.10.2020 06:00:00 14,4 12,3 13,7 22 12 22 12 SSW 1009,9 10 0,0
22.10.2020 05:00:00 14,1 11,8 13,2 16 9 22 12 SSW 1010,2 10 0,0
22.10.2020 04:00:00 14,0 11,4 12,8 16 9 22 12 SSW 1010,0 10 0,0
22.10.2020 03:00:00 15,0 11,5 13,8 16 9 29 16 SSW 1009,8 10 0,0
22.10.2020 02:00:00 16,1 11,7 15,3 24 13 40 21 SSW 1009,1 10 0,0
22.10.2020 01:00:00 16,6 11,9 15,8 28 15 40 21 SW 1008,6 10 0,0
22.10.2020 00:00:00 17,2 12,3 16,5 29 16 43 23 SW 1007,8 10 0,0
21.10.2020 23:00:00 17,2 12,5 16,3 31 17 40 21 SSW 1007,0 10 0,0
21.10.2020 22:00:00 17,3 12,0 16,5 29 16 47 25 SSW 1006,3 10 0,0
21.10.2020 21:00:00 18,1 12,0 17,4 34 18 47 25 SSW 1005,4 10 0,0
21.10.2020 20:00:00 18,7 12,0 17,8 34 18 50 27 SSW 1004,4 10 0,0
21.10.2020 19:00:00 19,0 11,7 18,0 37 20 58 31 SSW 1003,3 10 0,0
21.10.2020 18:00:00 19,6 11,6 18,8 44 24 76 41 SW 1002,3 10 0,0
21.10.2020 17:00:00 20,4 11,5 20,1 46 25 68 37 SW 1001,6 10 0,0
21.10.2020 16:00:00 20,5 11,3 19,9 48 26 76 41 SSW 1001,2 10 0,0
21.10.2020 15:00:00 20,9 11,0 20,5 50 27 72 39 SSW 1000,5 10 0,0
21.10.2020 14:00:00 20,3 10,5 20,4 42 23 65 35 SSW 1000,9 10 0,0
21.10.2020 13:00:00 18,5 9,5 17,5 41 22 68 37 SSW 1001,3 10 0,0
21.10.2020 12:00:00 16,5 9,8 15,6 34 18 47 25 S 1001,8 10 0,0
21.10.2020 11:00:00 14,8 10,0 13,9 26 14 36 19 S 1002,5 10 0,1
21.10.2020 10:00:00 13,4 10,0 12,9 26 14 40 21 S 1003,5 10 0,1
21.10.2020 09:00:00 12,7 10,7 12,2 18 10 29 16 S 1003,4 10 1,2
21.10.2020 08:00:00 12,3 10,6 11,8 15 8 25 14 S 1003,7 10 0,6
21.10.2020 07:00:00 12,3 10,2 11,8 13 7 22 12 S 1004,1 10 0,4
21.10.2020 06:00:00 12,5 10,2 12,0 11 6 25 14 S 1003,9 10 0,3
21.10.2020 05:00:00 12,8 10,7 12,3 16 9 22 12 S 1005,0 10 0,3
21.10.2020 04:00:00 12,9 11,1 12,4 16 9 25 14 S 1005,5 10 0,3
21.10.2020 03:00:00 13,5 11,2 13,0 16 9 25 14 S 1006,3 10 0,0
21.10.2020 02:00:00 13,6 11,6 13,2 16 9 22 12 S 1006,6 10 0,0
21.10.2020 01:00:00 13,4 11,9 12,9 15 8 22 12 S 1007,2 10 0,0
21.10.2020 00:00:00 13,4 11,9 12,9 15 8 22 12 S 1007,8 10 0,5
20.10.2020 23:00:00 13,5 11,6 13,1 18 10 22 12 S 1008,4 10 0,2
20.10.2020 22:00:00 14,0 11,3 13,3 18 10 32 18 S 1008,4 10 0,0
20.10.2020 21:00:00 14,2 11,7 13,6 21 11 25 14 S 1008,9 10 0,4
20.10.2020 20:00:00 14,3 12,0 13,8 18 10 29 16 SSW 1009,2 10 0,1
20.10.2020 19:00:00 14,5 11,8 13,9 24 13 36 19 SSW 1008,7 10 0,0
20.10.2020 18:00:00 14,1 12,0 13,6 18 10 29 16 SSW 1008,9 10 0,0
20.10.2020 17:00:00 14,3 12,1 14,0 22 12 32 18 SSW 1009,3 10 0,3
20.10.2020 16:00:00 14,7 11,4 14,2 26 14 43 23 SSW 1009,7 10 0,1
20.10.2020 15:00:00 15,4 11,0 15,0 26 14 36 19 SSW 1009,0 10 0,0
20.10.2020 14:00:00 15,3 10,4 15,3 21 11 32 18 SSW 1009,1 10 0,0
20.10.2020 13:00:00 14,1 9,5 13,8 26 14 36 19 SSW 1009,8 10 0,0
20.10.2020 12:00:00 14,0 8,4 13,6 29 16 40 21 SSW 1009,7 10 0,0
20.10.2020 11:00:00 12,8 7,8 12,5 22 12 29 16 SSW 1009,7 10 0,0
20.10.2020 10:00:00 12,2 7,1 11,7 24 13 32 18 S 1009,3 10 0,0
20.10.2020 09:00:00 11,7 6,6 10,9 28 15 32 18 SSW 1009,3 10 0,0
20.10.2020 08:00:00 11,4 6,3 10,6 26 14 32 18 S 1008,6 10 0,0
20.10.2020 07:00:00 10,6 5,6 9,8 16 9 25 14 SSW 1009,6 10 0,0
20.10.2020 06:00:00 10,7 5,5 9,8 18 10 25 14 SSE 1009,4 10 0,0
20.10.2020 05:00:00 10,8 5,1 9,9 18 10 25 14 S 1010,5 10 0,0
20.10.2020 04:00:00 9,9 4,8 8,9 9 5 14 8 SSE 1011,0 10 0,0
20.10.2020 03:00:00 9,5 4,5 7,1 13 7 14 8 SE 1011,7 10 0,0
20.10.2020 02:00:00 7,9 4,0 6,9 11 6 14 8 ESE 1012,8 10 0,0
20.10.2020 01:00:00 5,8 3,6 3,7 11 6 14 8 E 1013,4 10 0,0
20.10.2020 00:00:00 7,2 4,1 6,2 11 6 18 10 ESE 1014,2 10 0,0
19.10.2020 23:00:00 7,6 4,1 6,6 9 5 18 10 ESE 1015,4 10 0,0
19.10.2020 22:00:00 8,1 4,5 6,8 13 7 18 10 SE 1016,6 10 0,0
19.10.2020 21:00:00 8,7 4,5 7,0 15 8 22 12 SE 1017,8 10 0,0
19.10.2020 20:00:00 8,7 5,1 7,6 11 6 29 16 SE 1018,2 10 0,0
19.10.2020 19:00:00 9,3 5,3 7,4 11 6 14 8 SE 1018,3 10 0,0
19.10.2020 18:00:00 11,1 5,8 10,3 13 7 18 10 SE 1018,8 10 0,0
19.10.2020 17:00:00 12,5 5,6 12,3 11 6 22 12 SSE 1019,2 10 0,0
19.10.2020 16:00:00 12,8 4,6 12,6 13 7 22 12 S 1019,8 10 0,0
19.10.2020 15:00:00 13,2 4,7 13,5 9 5 14 8 S 1020,4 10 0,0
19.10.2020 14:00:00 13,2 5,8 14,2 9 5 18 10 SSW 1020,9 10 0,0
19.10.2020 13:00:00 12,3 7,2 13,2 9 5 18 10 SW 1021,8 10 0,0
19.10.2020 12:00:00 11,6 7,3 12,9 11 6 14 8 SSW 1022,3 10 0,0
19.10.2020 11:00:00 10,6 8,1 11,2 13 7 18 10 S 1022,7 10 0,0
19.10.2020 10:00:00 9,0 7,6 9,3 11 6 18 10 S 1022,7 9 0,0
19.10.2020 09:00:00 7,0 6,5 6,2 9 5 11 6 S 1022,6 3,8 0,0
19.10.2020 08:00:00 6,0 5,7 3,4 5 3 14 8 S 1022,1 1,0 0,0
19.10.2020 07:00:00 6,2 5,7 3,7 5 3 11 6 S 1022,3 2,2 0,0
19.10.2020 06:00:00 6,5 6,0 5,8 9 5 11 6 SW 1022,4 6 0,0
19.10.2020 05:00:00 8,4 7,7 8,1 11 6 11 6 SW 1022,7 8 0,0
19.10.2020 04:00:00 8,2 7,9 8,1 9 5 14 8 SSW 1023,0 2,3 0,0
19.10.2020 03:00:00 8,8 8,3 8,6 8 4 14 8 SSW 1022,9 2,3 0,0
19.10.2020 02:00:00 8,9 8,6 8,8 9 5 11 6 SSW 1023,1 2,2 0,0
19.10.2020 01:00:00 9,0 8,7 8,9 8 4 11 6 SSW 1023,1 2,6 0,1
19.10.2020 00:00:00 8,9 8,5 8,9 5 3 7 4 SSW 1023,3 3,3 0,6
18.10.2020 23:00:00 9,2 8,4 9,1 8 4 18 10 WNW 1023,3 6 1,6
18.10.2020 22:00:00 9,7 8,7 9,5 8 4 18 10 WSW 1022,9 4,1 0,0
18.10.2020 21:00:00 10,3 8,0 10,0 11 6 18 10 SW 1022,7 7 0,0
18.10.2020 20:00:00 10,3 8,0 10,0 13 7 14 8 SW 1022,8 8 0,0
18.10.2020 19:00:00 10,7 7,9 10,3 11 6 14 8 SW 1022,5 10 0,0
18.10.2020 18:00:00 11,1 7,6 10,8 11 6 18 10 SW 1022,1 10 0,0
18.10.2020 17:00:00 11,7 7,4 12,0 13 7 18 10 SSW 1022,0 10 0,0
18.10.2020 16:00:00 12,3 7,4 13,3 9 5 18 10 WSW 1022,4 10 0,0
18.10.2020 15:00:00 11,6 7,1 12,4 13 7 22 12 WSW 1022,7 10 0,0
18.10.2020 14:00:00 11,3 7,3 12,0 13 7 22 12 WSW 1023,0 9 0,0
18.10.2020 13:00:00 10,7 6,2 11,8 11 6 25 14 WSW 1023,3 10 0,0
18.10.2020 12:00:00 9,5 6,1 9,9 21 11 25 14 SSW 1023,1 9 0,0
18.10.2020 11:00:00 8,2 5,8 8,4 16 9 22 12 SSW 1023,1 8 0,0
18.10.2020 10:00:00 7,3 5,6 7,3 15 8 22 12 SSW 1023,1 7 0,0
18.10.2020 09:00:00 6,7 5,3 6,6 13 7 18 10 SSW 1022,8 6 0,0
18.10.2020 08:00:00 6,5 5,1 6,2 9 5 14 8 SSW 1022,3 5 0,0
18.10.2020 07:00:00 6,2 5,0 6,0 11 6 14 8 SSW 1022,1 5 0,0
18.10.2020 06:00:00 6,2 5,0 6,1 13 7 18 10 SSW 1022,1 5 0,0
18.10.2020 05:00:00 6,0 4,9 5,8 11 6 18 10 SSW 1022,2 4,5 0,0
18.10.2020 04:00:00 6,1 5,0 5,9 9 5 18 10 SSW 1022,2 4,7 0,0
18.10.2020 03:00:00 5,6 4,7 4,4 11 6 14 8 SSW 1022,2 5 0,0
18.10.2020 02:00:00 4,6 3,6 2,7 8 4 11 6 SSW 1022,2 6 0,0
18.10.2020 01:00:00 5,9 4,3 4,8 8 4 7 4 SSW 1022,1 7 0,0
18.10.2020 00:00:00 6,9 5,2 6,4 11 6 11 6 SW 1022,1 9 0,0
17.10.2020 23:00:00 7,6 5,5 7,1 5 3 7 4 SSW 1022,0 8 0,0
17.10.2020 22:00:00 7,3 5,3 6,5 4 2 7 4 SSW 1021,9 8 0,0
17.10.2020 21:00:00 8,3 5,8 8,0 5 3 7 4 WSW 1021,7 10 0,0
17.10.2020 20:00:00 8,9 4,9 7,6 4 2 7 4 - 1021,6 10 0,0
17.10.2020 19:00:00 8,7 5,3 7,3 4 2 4 2 SSW 1021,1 10 0,0
17.10.2020 18:00:00 9,9 5,2 9,9 4 2 4 2 - 1020,8 10 0,0
17.10.2020 17:00:00 10,2 4,4 10,6 2 1 4 2 - 1020,9 10 0,0
17.10.2020 16:00:00 10,0 5,0 10,3 2 1 7 4 - 1020,8 10 0,0
17.10.2020 15:00:00 9,9 4,7 10,7 4 2 7 4 - 1020,8 10 0,0
17.10.2020 14:00:00 10,0 5,0 11,2 2 1 7 4 - 1020,9 10 0,0
17.10.2020 13:00:00 9,4 5,3 10,7 4 2 22 12 - 1021,2 10 0,0
17.10.2020 12:00:00 8,5 5,6 9,6 4 2 11 6 - 1021,4 10 0,0
17.10.2020 11:00:00 7,6 5,5 7,9 4 2 7 4 SE 1021,2 10 0,0
17.10.2020 10:00:00 7,0 5,2 7,1 4 2 14 8 - 1021,2 10 0,0
17.10.2020 09:00:00 6,7 5,5 6,5 4 2 7 4 NE 1021,0 10 0,0
17.10.2020 08:00:00 6,5 5,2 6,3 4 2 7 4 N 1020,8 10 0,0

tt = temperature
td = dewpoint
tt 5cm = temperature 5cm
ff = wind speed
fx = gusts
dd = wind direction
ppp = reduced air pressure
vv = visibility
rr = precipitation

Next stations